sat.trackr.live / text

‹ back to catalog

STARLINK-35271

NORAD 65812 · 2025-218X

PAYLOAD ACTIVE UNKNOWN

§ Identity

Operator
Country
US
Launch date
2025-09-26
Launch site
AFWTR
Launch vehicle
Mass (kg)
RCS (m²)

Purposes: comms

External: N2YO · Heavens-Above · Gunter

§ Orbital elements

Epoch: 2026-05-25T02:47:17.184768Z

Period
95.64 min
Inclination
97.4519°
Eccentricity
0.0001508
Mean motion
15.05661632 rev/d
Perigee alt
548.4 km
Apogee alt
550.5 km
Semi-major
6,927.6 km
B*
3.2413e-4
RAAN
7.9696°
Arg perigee
57.7146°
Mean anomaly
302.4227°
Rev number
3,647

§ Raw data

STARLINK-352711 65812U 25218X   26145.11617112  .00004623  00000+0  32413-3 0  99982 65812  97.4519   7.9696 0001508  57.7146 302.4227 15.05661632 36475

JSON: /api/v1/satellites/65812 · /tle

For live sub-satellite position, see the globe view (requires WebGL).

§ Visibility from observer

Set your observer location to see the next 7 days of passes ≥ 10°. The values pass through the URL so the page stays shareable.

No JS? Fill the form by hand. The geolocation button needs JavaScript.